Weather reports worldwide

Advertisment
Berlin-Schönefeld, Germany (10385): temperature & dewpoint: 14.06.2019 06:00:00 - 20.06.2019 06:00:00 (CEST)Berlin-Schönefeld, Germany (10385): temperature 5cm & temperature -5cm: 14.06.2019 06:00:00 - 20.06.2019 06:00:00 (CEST)Berlin-Schönefeld, Germany (10385): temperature -20cm & temperature -100cm: 14.06.2019 06:00:00 - 20.06.2019 06:00:00 (CEST)Berlin-Schönefeld, Germany (10385): wind speed & gusts: 14.06.2019 06:00:00 - 20.06.2019 06:00:00 (CEST)Berlin-Schönefeld, Germany (10385): wind direction: 14.06.2019 06:00:00 - 20.06.2019 06:00:00 (CEST)Berlin-Schönefeld, Germany (10385): reduced air pressure: 14.06.2019 06:00:00 - 20.06.2019 06:00:00 (CEST)Berlin-Schönefeld, Germany (10385): visibility: 14.06.2019 06:00:00 - 20.06.2019 06:00:00 (CEST)Berlin-Schönefeld, Germany (10385): sunshine duration: 14.06.2019 06:00:00 - 20.06.2019 06:00:00 (CEST)Berlin-Schönefeld, Germany (10385): precipitation: 14.06.2019 06:00:00 - 20.06.2019 06:00:00 (CEST)
Date & Time tt [°C] td [°C] tt 5cm [°C] tt -5cm [°C] tt -20cm [°C] tt -100cm [°C] ff [km/h] ff [kn] fx [km/h] fx [kn] dd ppp [hPa] vv [km] sd [min] rr [mm]
20.06.2019 06:00:00 18,9 14,7 17,4 20,9 23,5 18,7 7 4 21 11 WNW 1008,7 40 10 0,0
20.06.2019 05:00:00 20,2 13,8 17,2 21,4 23,8 18,7 6 3 19 10 W 1008,1 40 0 0,0
20.06.2019 04:00:00 22,0 13,2 20,8 21,9 24,2 18,7 14 8 28 15 WNW 1008,0 40 0 0,0
20.06.2019 03:00:00 21,1 12,9 18,2 22,5 24,5 18,7 9 5 15 8 ENE 1007,1 30 0 0,0
20.06.2019 02:00:00 23,2 11,7 21,8 22,9 24,9 18,7 10 5 23 13 NW 1008,2 40 0 0,0
20.06.2019 01:00:00 23,3 14,8 22,0 23,3 25,4 18,7 15 8 21 11 W 1008,3 10 0 0,0
20.06.2019 00:00:00 22,9 14,6 20,3 24,1 25,9 18,7 9 5 27 15 W 1008,0 10 0 0,0
19.06.2019 23:00:00 22,1 13,5 19,2 25,0 26,4 18,6 9 5 30 16 SSE 1007,5 10 0 0,0
19.06.2019 22:00:00 22,9 13,0 20,2 26,4 26,9 18,6 11 6 17 9 S 1007,6 40 0 0,0
19.06.2019 21:00:00 25,4 11,6 24,1 28,2 27,2 18,6 11 6 34 18 SE 1007,1 40 43 0,0
19.06.2019 20:00:00 25,2 11,9 25,3 29,6 27,5 18,6 29 16 54 29 SE 1007,4 10 5 0,0
19.06.2019 19:00:00 28,8 12,2 29,6 31,0 27,6 18,6 17 9 33 18 SSE 1007,0 40 39 0,0
19.06.2019 18:00:00 30,7 13,3 34,3 32,0 27,7 18,6 9 5 31 17 WNW 1006,8 10 18 0,0
19.06.2019 17:00:00 30,9 11,2 34,0 34,5 27,4 18,6 15 8 36 20 SSW 1007,5 10 52 0,0
19.06.2019 16:00:00 31,6 13,4 36,1 35,8 26,9 18,6 16 9 35 19 S 1007,9 40 55 0,0
19.06.2019 15:00:00 30,9 14,3 36,9 35,1 26,2 18,6 16 9 31 17 S 1008,6 10 38 0,0
19.06.2019 14:00:00 30,9 13,3 37,3 36,3 25,4 18,6 11 6 31 17 S 1009,0 40 59 0,0
19.06.2019 13:00:00 30,9 14,7 38,9 34,3 24,5 18,6 13 7 39 21 SSE 1009,2 10 59 0,0
19.06.2019 12:00:00 29,2 14,6 36,0 31,9 23,6 18,6 18 10 29 16 SE 1009,9 35 59 0,0
19.06.2019 11:00:00 27,7 14,3 34,4 30,2 22,8 18,5 15 8 22 12 SE 1010,4 10 60 0,0
19.06.2019 10:00:00 25,8 15,9 31,4 27,2 22,3 18,5 11 6 23 13 SE 1010,9 10 60 0,0
19.06.2019 09:00:00 23,6 15,4 27,6 24,4 21,9 18,5 10 5 18 10 SE 1011,4 30 60 0,0
19.06.2019 08:00:00 20,9 14,5 23,3 21,7 21,9 18,5 8 4 13 7 E 1011,8 10 60 0,0
19.06.2019 07:00:00 18,9 13,6 18,5 20,1 22,1 18,5 9 5 15 8 ESE 1011,9 10 60 0,0
19.06.2019 06:00:00 16,9 13,1 15,2 19,3 22,5 18,5 8 4 11 6 E 1012,3 10 15 0,0
19.06.2019 05:00:00 16,3 12,6 13,0 19,4 22,9 18,5 8 4 10 5 E 1012,6 35 0 0,0
19.06.2019 04:00:00 16,7 12,9 13,7 20,1 23,3 18,5 6 4 13 7 ENE 1012,8 40 0 0,0
19.06.2019 03:00:00 18,4 12,8 14,6 20,7 23,7 18,4 9 5 13 7 E 1013,0 45 0 0,0
19.06.2019 02:00:00 19,1 12,7 15,3 21,3 24,1 18,4 10 6 16 9 E 1013,4 45 0 0,0
19.06.2019 01:00:00 20,4 12,4 16,8 22,1 24,6 18,4 13 7 18 10 ESE 1013,7 10 0 0,0
19.06.2019 00:00:00 21,7 12,3 18,6 22,9 25,1 18,4 11 6 22 12 ESE 1014,0 10 0 0,0
18.06.2019 23:00:00 22,3 11,3 18,8 23,9 25,6 18,4 13 7 18 10 SE 1013,9 50 0 0,0
18.06.2019 22:00:00 23,4 10,2 17,4 25,3 26,1 18,4 9 5 16 9 ESE 1013,8 10 0 0,0
18.06.2019 21:00:00 25,6 9,7 24,4 27,2 26,5 18,4 11 6 23 12 ESE 1013,6 55 58 0,0
18.06.2019 20:00:00 27,3 9,1 26,6 28,9 26,7 18,4 13 7 37 20 SE 1013,7 10 60 0,0
18.06.2019 19:00:00 28,5 9,5 32,3 29,5 26,9 18,4 13 7 28 15 SE 1013,9 55 59 0,0
18.06.2019 18:00:00 28,9 8,3 33,8 30,7 26,9 18,4 11 6 29 16 - 1014,2 10 60 0,0
18.06.2019 17:00:00 28,9 8,4 35,1 33,9 26,7 18,4 16 9 31 17 SE 1014,8 10 55 0,0
18.06.2019 16:00:00 27,9 9,2 33,0 34,9 26,1 18,4 18 10 35 19 ESE 1015,6 10 54 0,0
18.06.2019 15:00:00 28,6 9,7 36,3 34,9 25,4 18,4 22 12 42 23 ESE 1016,2 10 58 0,0
18.06.2019 14:00:00 28,5 11,2 35,6 33,7 24,6 18,4 16 9 41 22 ESE 1016,9 10 53 0,0
18.06.2019 13:00:00 27,4 10,3 34,3 32,9 23,8 18,3 24 13 42 23 ESE 1017,6 10 59 0,0
18.06.2019 12:00:00 26,8 11,2 33,6 31,1 23,0 18,3 24 13 48 26 E 1018,1 10 60 0,0
18.06.2019 11:00:00 25,8 10,9 32,0 29,1 22,3 18,3 22 12 31 17 SE 1018,5 10 60 0,0
18.06.2019 10:00:00 25,3 12,6 30,8 26,6 21,7 18,3 24 13 33 18 SSE 1019,0 10 60 0,0
18.06.2019 09:00:00 23,3 13,1 27,2 23,8 21,4 18,3 15 8 21 11 SE 1019,3 10 60 0,0
18.06.2019 08:00:00 21,0 13,3 23,0 21,1 21,3 18,3 11 6 16 9 ESE 1019,5 10 60 0,0
18.06.2019 07:00:00 18,4 13,9 17,8 19,1 21,5 18,3 9 5 15 8 E 1019,3 10 60 0,0
18.06.2019 06:00:00 16,0 12,8 14,0 18,2 21,9 18,3 8 4 9 5 E 1019,3 10 29 0,0
18.06.2019 05:00:00 15,5 12,5 11,8 18,4 22,4 18,2 5 3 9 5 E 1019,5 10 0 0,0
18.06.2019 04:00:00 16,0 12,3 12,0 19,0 22,8 18,2 5 3 13 7 ENE 1019,5 10 0 0,0
18.06.2019 03:00:00 17,3 12,5 14,2 19,7 23,3 18,2 13 7 18 10 E 1019,7 40 0 0,0
18.06.2019 02:00:00 17,6 12,5 14,7 20,4 23,9 18,2 13 7 16 9 E 1020,0 40 0 0,0
18.06.2019 01:00:00 18,2 13,0 14,3 21,2 24,4 18,2 11 6 15 8 E 1020,1 10 0 0,0
18.06.2019 00:00:00 18,8 12,8 14,0 22,2 25,0 18,2 11 6 15 8 E 1019,8 10 0 0,0
17.06.2019 23:00:00 19,7 12,5 15,7 23,4 25,7 18,2 9 5 13 7 E 1019,8 10 0 0,0
17.06.2019 22:00:00 21,3 12,7 15,7 24,9 26,2 18,2 8 4 11 6 ENE 1019,7 10 0 0,0
17.06.2019 21:00:00 24,0 12,0 20,7 27,0 26,7 18,2 8 4 9 5 ENE 1019,4 10 56 0,0
17.06.2019 20:00:00 24,9 12,1 24,6 28,9 27,1 18,2 5 3 18 10 E 1019,5 10 44 0,0
17.06.2019 19:00:00 25,1 11,6 26,6 30,4 27,4 18,2 9 5 21 11 SE 1019,7 10 41 0,0
17.06.2019 18:00:00 25,8 11,3 28,5 32,2 27,4 18,2 4 2 18 10 - 1020,1 10 11 0,0
17.06.2019 17:00:00 27,7 10,4 35,7 35,4 27,1 18,2 8 4 21 11 SE 1020,4 10 41 0,0
17.06.2019 16:00:00 26,0 11,5 33,2 38,0 26,3 18,2 10 5 19 10 ENE 1020,8 55 57 0,0
17.06.2019 15:00:00 26,6 10,2 32,9 37,6 25,2 18,2 7 4 16 8 SSW 1021,3 55 60 0,0
17.06.2019 14:00:00 24,6 11,3 32,3 35,8 24,1 18,2 8 4 20 11 WSW 1021,6 10 54 0,0
17.06.2019 13:00:00 24,7 12,1 32,5 33,6 23,0 18,2 7 4 17 9 SSW 1022,0 50 51 0,0
17.06.2019 12:00:00 23,2 11,3 30,9 32,5 21,9 18,2 8 4 18 10 - 1022,2 10 60 0,0
17.06.2019 11:00:00 22,9 12,0 28,8 29,3 20,9 18,2 9 5 22 12 S 1022,5 50 60 0,0
17.06.2019 10:00:00 21,4 12,0 26,2 25,7 20,2 18,2 15 8 22 12 SSE 1022,9 10 60 0,0
17.06.2019 09:00:00 20,7 12,5 23,7 22,0 19,8 18,2 13 7 22 12 SSE 1022,9 10 58 0,0
17.06.2019 08:00:00 18,1 12,8 17,8 18,8 19,8 18,2 9 5 15 8 S 1022,9 45 11 0,0
17.06.2019 07:00:00 16,4 13,4 16,6 17,8 19,9 18,2 9 5 13 7 SSE 1022,9 10 6 0,0
17.06.2019 06:00:00 15,1 12,6 14,1 17,1 20,1 18,2 8 4 11 6 SSE 1022,6 10 0 0,0
17.06.2019 05:00:00 15,2 12,9 14,2 17,2 20,4 18,2 4 2 8 4 SSE 1022,2 10 0 0,0
17.06.2019 04:00:00 14,8 12,9 14,5 17,5 20,7 18,2 5 3 8 4 NE 1022,1 40 0 0,0
17.06.2019 03:00:00 14,5 12,6 13,0 17,5 21,0 18,2 2 1 8 4 SW 1022,2 10 0 0,0
17.06.2019 02:00:00 15,1 12,5 13,5 17,8 21,4 18,2 5 3 9 5 S 1022,2 10 0 0,0
17.06.2019 01:00:00 15,7 12,3 12,4 18,4 21,9 18,2 4 2 10 5 SSE 1022,0 10 0 0,0
17.06.2019 00:00:00 17,5 11,5 12,8 19,1 22,3 18,2 4 2 5 3 W 1021,6 10 0 0,0
16.06.2019 23:00:00 18,5 11,5 15,4 20,2 22,7 18,2 5 3 9 5 WSW 1021,7 10 0 0,0
16.06.2019 22:00:00 18,6 11,7 17,8 21,1 23,1 18,1 9 5 11 6 WSW 1021,5 10 0 0,0
16.06.2019 21:00:00 19,0 11,6 17,6 22,2 23,4 18,1 9 5 15 8 W 1021,3 10 17 0,0
16.06.2019 20:00:00 20,8 11,8 21,2 23,7 23,6 18,1 11 6 16 9 WNW 1021,0 10 16 0,0
16.06.2019 19:00:00 20,2 11,9 20,5 24,1 23,9 18,1 9 5 16 9 NW 1020,7 10 0 0,0
16.06.2019 18:00:00 20,3 12,2 21,1 25,1 24,0 18,1 13 7 22 12 WNW 1020,7 10 0 0,0
16.06.2019 17:00:00 20,2 11,7 21,2 25,7 24,1 18,1 15 8 26 14 W 1020,8 65 0 0,0
16.06.2019 16:00:00 21,0 11,7 22,8 26,9 24,1 18,1 19 11 26 14 W 1020,8 55 0 0,0
16.06.2019 15:00:00 20,6 12,2 22,0 27,7 23,9 18,1 19 11 29 16 W 1020,5 60 4 0,0
16.06.2019 14:00:00 21,4 11,7 24,3 27,6 23,7 18,1 22 12 31 17 W 1020,3 10 0 0,0
16.06.2019 13:00:00 21,4 10,5 23,2 28,4 23,2 18,1 15 8 24 13 WNW 1020,0 10 4 0,0
16.06.2019 12:00:00 21,6 11,2 24,5 28,1 22,6 18,1 11 6 25 13 WNW 1019,7 10 21 0,0
16.06.2019 11:00:00 21,8 10,9 26,0 28,4 21,8 18,0 14 8 26 14 NW 1019,2 55 58 0,0
16.06.2019 10:00:00 20,1 10,4 23,9 26,0 21,2 18,0 16 9 29 16 NNW 1018,8 10 60 0,0
16.06.2019 09:00:00 18,8 11,4 21,5 22,9 20,9 18,0 17 9 29 16 NW 1018,6 60 60 0,0
16.06.2019 08:00:00 17,2 11,9 18,7 19,9 20,9 18,0 16 9 24 13 WNW 1018,1 10 60 0,0
16.06.2019 07:00:00 15,4 12,3 15,1 17,3 21,3 18,0 13 7 25 14 WNW 1017,8 10 15 0,0
16.06.2019 06:00:00 15,5 12,4 15,1 17,4 21,7 17,9 15 8 22 12 WNW 1017,0 10 23 0,0
16.06.2019 05:00:00 15,7 12,0 14,9 17,7 22,2 17,9 16 9 24 13 WNW 1016,7 10 0 0,0
16.06.2019 04:00:00 16,7 12,0 15,7 18,4 22,7 17,9 17 9 31 17 WNW 1016,1 60 0 0,0
16.06.2019 03:00:00 17,4 11,9 16,4 19,2 23,3 17,9 18 10 29 16 WNW 1015,8 10 0 0,0
16.06.2019 02:00:00 18,5 11,8 17,5 20,2 23,8 17,9 21 12 36 20 WNW 1015,9 60 0 0,0
16.06.2019 01:00:00 19,7 13,6 18,9 21,3 24,4 17,9 21 11 37 20 WNW 1015,5 60 0 0,0
16.06.2019 00:00:00 21,2 14,5 20,4 22,4 24,9 17,9 18 10 35 19 WNW 1014,8 10 0 0,0
15.06.2019 23:00:00 22,0 14,5 21,1 23,5 25,5 17,8 11 6 23 13 WNW 1013,9 60 0 0,0
15.06.2019 22:00:00 23,4 14,3 22,3 24,8 26,0 17,8 16 9 31 17 NW 1013,3 60 0 0,0
15.06.2019 21:00:00 24,4 14,1 24,1 26,7 26,5 17,8 26 14 42 23 WNW 1011,5 10 59 0,0
15.06.2019 20:00:00 25,9 14,5 25,8 28,7 26,8 17,8 29 16 46 25 WNW 1011,4 10 60 0,0
15.06.2019 19:00:00 27,0 15,6 28,2 29,6 27,0 17,8 30 16 51 27 WNW 1010,4 40 60 0,0
15.06.2019 18:00:00 29,1 17,9 30,9 31,3 27,1 17,8 34 18 49 26 WNW 1009,8 10 60 0,0
15.06.2019 17:00:00 30,3 15,0 32,9 34,2 26,7 17,8 35 19 50 27 WSW 1009,3 10 60 0,0
15.06.2019 16:00:00 31,5 15,6 33,8 35,0 26,2 17,8 34 18 43 23 WSW 1008,7 35 46 0,0
15.06.2019 15:00:00 31,3 17,3 33,3 34,6 25,5 17,8 26 14 39 21 SW 1008,6 35 38 0,0
15.06.2019 14:00:00 30,5 18,0 33,2 33,4 24,7 17,8 24 13 38 21 S 1008,5 10 6 0,0
15.06.2019 13:00:00 29,8 19,1 33,3 34,2 23,7 17,8 18 10 37 20 S 1008,5 10 53 0,0
15.06.2019 12:00:00 28,9 19,1 34,4 32,0 22,8 17,8 22 12 38 20 SSE 1008,3 10 60 0,0
15.06.2019 11:00:00 27,6 18,9 32,5 28,2 22,1 17,7 25 14 42 23 SE 1009,0 30 44 0,0
15.06.2019 10:00:00 25,8 18,1 27,8 26,6 21,6 17,7 31 17 48 26 ESE 1008,9 30 55 0,0
15.06.2019 09:00:00 25,2 18,5 27,6 23,9 21,3 17,7 28 15 51 27 ESE 1009,4 30 60 0,0
15.06.2019 08:00:00 23,9 18,2 25,2 22,1 21,2 17,7 31 17 45 24 ESE 1009,7 25 32 0,0
15.06.2019 07:00:00 22,3 17,7 21,9 20,3 21,3 17,7 34 18 52 28 E 1009,9 22 0 0,0
15.06.2019 06:00:00 21,4 17,3 20,4 20,0 21,5 17,7 39 21 61 33 E 1009,9 20 0 0,1
15.06.2019 05:00:00 21,9 17,0 19,4 20,2 21,7 17,7 31 17 42 23 ESE 1011,9 10 0 0,1
15.06.2019 04:00:00 23,0 16,1 21,8 20,3 22,0 17,7 21 11 29 16 E 1012,8 10 0 0,0
15.06.2019 03:00:00 23,5 15,9 22,0 20,5 22,3 17,7 21 12 36 20 E 1013,5 60 0 0,0
15.06.2019 02:00:00 24,1 15,3 22,4 20,7 22,6 17,6 23 13 34 18 E 1014,3 60 0 0,0
15.06.2019 01:00:00 23,8 14,3 22,1 20,9 23,0 17,6 22 12 31 17 E 1014,7 10 0 0,0
15.06.2019 00:00:00 23,9 13,9 22,0 21,5 23,4 17,6 18 10 25 14 E 1015,5 10 0 0,0
14.06.2019 23:00:00 24,4 13,8 22,2 22,1 23,9 17,6 15 8 27 15 E 1015,9 10 0 0,0
14.06.2019 22:00:00 24,6 14,0 22,8 23,2 24,3 17,6 15 8 22 12 ENE 1015,4 10 0 0,0
14.06.2019 21:00:00 25,3 12,5 23,3 24,4 24,7 17,6 11 6 22 12 ENE 1015,5 10 0 0,0
14.06.2019 20:00:00 26,8 11,4 25,1 25,7 25,0 17,6 13 7 22 12 ESE 1015,8 10 3 0,0
14.06.2019 19:00:00 28,5 10,2 29,3 27,2 25,3 17,6 16 9 22 12 ESE 1015,7 55 51 0,0
14.06.2019 18:00:00 28,9 10,8 31,3 28,7 25,3 17,6 15 8 25 13 SE 1016,1 10 60 0,0
14.06.2019 17:00:00 29,4 8,8 33,2 30,9 25,1 17,6 11 6 21 11 SE 1016,9 10 35 0,0
14.06.2019 16:00:00 29,1 9,1 33,6 32,1 24,7 17,6 11 6 22 12 SSE 1017,2 60 45 0,0
14.06.2019 15:00:00 29,3 10,0 34,1 32,5 24,1 17,6 16 9 32 17 SSE 1017,6 60 60 0,0
14.06.2019 14:00:00 28,8 8,5 33,6 32,0 23,4 17,6 15 8 24 13 S 1018,1 10 60 0,0
14.06.2019 13:00:00 28,2 12,2 34,2 31,4 22,6 17,6 16 9 33 18 SSW 1018,6 10 60 0,0
14.06.2019 12:00:00 26,8 11,7 31,6 30,3 21,7 17,6 13 7 28 15 S 1019,0 10 60 0,0
14.06.2019 11:00:00 25,8 14,7 30,2 28,6 20,8 17,6 10 6 22 12 SSE 1019,2 60 60 0,0
14.06.2019 10:00:00 24,6 14,3 28,3 26,2 19,9 17,6 9 5 16 9 SE 1019,2 10 60 0,0
14.06.2019 09:00:00 21,9 14,8 25,3 23,1 19,4 17,6 10 5 16 9 SE 1019,2 60 60 0,0
14.06.2019 08:00:00 19,6 14,6 20,9 19,9 19,2 17,6 11 6 16 9 ESE 1019,0 10 60 0,0
14.06.2019 07:00:00 17,5 13,7 16,6 17,4 19,3 17,6 10 5 15 8 ESE 1018,6 60 60 0,0
14.06.2019 06:00:00 16,1 12,7 13,5 15,8 19,6 17,6 5 3 9 5 ENE 1018,2 10 29 0,0

tt = temperature
td = dewpoint
tt 5cm = temperature 5cm
tt -5cm = temperature -5cm
tt -20cm = temperature -20cm
tt -100cm = temperature -100cm
ff = wind speed
fx = gusts
dd = wind direction
ppp = reduced air pressure
vv = visibility
sd = sunshine duration
rr = precipitation

Next stations